Wind_Speed
25 25 26 26 27 26 25 24 24 24 24 24 23 23 22 22 22 22 21 20 20 19 18 18 17 17 17 16 16 16 16 15 14 14 14 13 13 12 12 12 11 11 11 10 10 10 10 10 10
25 25 26 26 27 26 25 24 25 25 25 25 24 24 24 23 23 22 21 21 21 21 20 20 19 19 19 18 18 17 17 17 16 16 16 15 15 14 14 14 13 13 13 13 13 12 12 12 12
26 26 27 27 26 25 25 25 25 25 25 25 25 25 24 24 23 23 22 22 22 22 22 21 21 20 20 20 20 19 19 19 18 18 18 18 17 17 16 15 15 15 15 15 15 15 14 14 14
27 28 28 27 26 26 26 26 26 25 25 25 25 25 25 25 24 23 23 23 23 23 23 22 22 22 22 21 21 21 21 20 20 20 20 20 20 19 19 18 17 17 17 16 16 16 16 16 16
28 29 29 27 26 27 28 27 27 26 25 25 25 25 25 25 25 24 24 24 24 23 23 23 23 23 23 23 23 23 22 22 22 21 22 21 21 21 20 20 20 19 19 18 18 18 18 18 18
28 28 28 27 26 27 28 28 28 27 27 26 26 25 25 25 25 25 24 25 25 24 24 24 24 24 24 24 24 24 24 24 24 23 23 23 22 22 22 21 21 21 20 20 20 19 20 20 20
28 28 28 27 27 28 28 29 28 28 28 27 26 26 25 25 25 25 25 25 25 24 24 24 25 25 25 25 25 25 25 25 25 25 24 24 24 24 23 23 22 22 22 22 22 22 22 22 22
27 28 27 27 27 28 29 29 29 29 28 28 28 27 26 26 26 26 25 25 24 24 24 25 25 25 25 25 25 25 26 26 26 25 25 25 25 25 24 24 24 24 24 24 24 24 24 24 24
28 28 26 26 27 28 30 30 29 29 29 29 28 28 28 27 27 27 26 26 25 25 25 25 25 25 25 25 25 26 26 27 27 26 26 26 26 26 26 26 25 25 25 25 26 26 26 26 26
28 27 26 26 27 28 30 30 30 29 29 29 29 29 29 29 29 28 27 27 26 26 26 26 25 25 25 26 26 27 27 27 28 28 28 27 27 27 27 27 27 27 28 28 28 28 28 28 28
29 28 27 28 29 29 29 30 30 30 30 30 30 30 30 30 30 29 29 28 28 27 27 27 27 27 27 27 27 28 28 28 28 29 29 29 29 29 29 29 29 30 30 30 30 30 30 30 30
31 30 29 30 30 30 30 29 29 29 29 30 31 31 30 30 30 30 30 30 29 29 29 29 29 29 29 29 29 29 29 29 29 30 31 31 31 31 31 32 32 32 32 32 32 33 33 33 33
33 32 31 31 31 32 31 31 30 28 29 30 31 31 31 30 31 31 31 31 31 31 31 31 31 31 31 32 32 32 32 31 31 32 32 33 34 34 34 34 34 34 34 35 35 35 35 35 35
33 34 33 33 32 32 33 32 31 29 31 31 31 31 31 31 32 32 32 32 33 33 33 33 33 33 33 34 34 35 35 34 34 34 35 36 37 37 37 37 37 37 37 37 37 37 37 38 38
34 34 34 34 34 34 34 33 32 31 32 32 32 32 32 32 32 32 32 33 33 33 34 34 35 35 35 36 36 37 37 37 37 38 38 38 39 40 40 39 39 39 39 39 40 40 40 40 41
36 36 35 34 35 35 36 33 33 34 34 34 34 34 33 33 32 32 33 33 33 34 34 35 35 35 36 37 38 39 40 40 40 40 41 40 40 41 41 42 41 41 42 42 42 42 42 42 42
37 37 36 36 37 37 37 35 35 35 36 36 35 35 35 35 34 34 34 34 33 34 34 35 35 35 36 37 38 39 40 41 41 42 42 42 42 42 42 43 44 44 44 44 44 44 45 44 44
38 38 38 38 38 38 38 37 37 37 37 36 36 37 36 36 36 36 35 35 35 34 34 35 35 36 37 38 39 40 40 41 41 41 42 42 42 43 44 45 46 46 45 45 45 46 46 46 46
41 40 40 39 39 40 40 39 38 38 38 37 37 37 37 37 37 37 37 37 36 36 36 35 36 37 37 38 39 39 40 40 41 42 42 43 43 44 44 45 45 46 46 46 46 47 48 48 48
42 42 41 41 41 41 41 40 39 39 38 38 38 38 37 37 37 37 38 37 37 37 37 37 37 37 38 38 38 38 39 40 41 42 43 44 44 45 45 45 45 45 46 47 47 48 49 50 50
43 42 42 42 41 41 41 41 39 39 39 39 39 38 38 38 38 38 38 38 38 38 37 37 37 38 38 38 38 38 38 39 41 42 42 43 44 44 44 44 45 46 46 47 48 48 48 49 50
44 43 43 43 43 42 42 41 39 39 39 39 39 39 39 39 39 39 39 39 39 39 38 38 38 38 38 38 38 38 38 39 40 41 42 43 44 44 44 45 46 47 48 48 49 50 50 51 52
44 44 44 44 44 44 43 44 40 40 40 39 39 39 40 40 40 40 40 40 40 40 40 40 39 39 39 38 38 39 40 41 41 42 42 43 43 44 45 46 47 48 49 50 50 52 52 54 54
44 44 45 45 46 48 45 45 43 40 39 39 39 40 40 40 40 41 41 41 41 41 40 40 40 40 40 40 40 40 41 41 42 43 44 44 44 45 46 47 49 50 51 51 52 53 54 54 55
44 44 45 46 47 48 46 47 46 41 39 39 39 39 40 41 41 42 42 42 42 41 40 41 42 42 41 42 42 42 42 43 43 44 45 45 45 46 48 49 50 50 51 52 53 54 55 56 56
43 44 45 45 47 48 47 47 46 44 42 40 39 39 40 41 41 42 42 43 43 42 42 42 42 43 43 43 43 44 44 44 44 45 46 46 47 48 48 49 50 51 52 53 54 55 56 57 58
42 44 43 45 47 47 48 47 45 43 42 42 41 40 40 41 41 41 42 43 44 44 44 43 44 44 44 44 44 45 45 46 46 46 47 48 49 49 49 50 51 52 53 54 55 55 56 57 58
41 42 42 43 44 45 47 46 44 43 42 42 42 41 41 42 42 43 43 43 44 44 44 44 44 44 45 45 45 46 46 47 47 47 48 48 49 50 50 51 51 52 54 55 55 56 57 58 58
38 40 43 44 43 42 43 44 44 42 42 42 42 42 42 42 43 43 44 44 44 44 44 44 45 45 45 46 46 46 46 47 47 48 48 49 49 50 51 51 52 52 53 55 55 56 57 57 57
39 38 40 42 43 42 42 43 41 41 41 41 42 43 43 43 43 43 43 44 44 44 44 45 45 45 46 46 46 46 46 47 47 47 48 48 49 50 51 51 52 52 53 55 55 55 55 55 55
Wind_Direction
235 235 235 235 236 236 236 236 236 237 237 237 238 238 240 241 242 244 245 245 245 245 245 245 245 246 245 245 246 245 246 247 249 250 251 252 253 256 258 259 260 261 262 264 266 268 270 267 268
234 234 235 235 236 236 236 236 236 236 237 237 238 238 239 241 242 243 244 245 245 245 246 246 246 247 247 246 246 246 246 247 248 250 251 253 255 257 259 260 261 262 263 264 265 267 268 267 268
234 234 235 236 236 236 235 235 235 236 237 237 238 239 240 241 242 243 244 245 245 245 245 246 247 247 247 248 248 247 247 248 249 250 251 253 255 257 259 260 261 262 263 263 264 265 266 266 267
235 235 236 237 236 235 236 235 235 236 236 237 239 239 240 241 242 243 243 244 244 245 245 245 246 248 248 249 249 249 249 250 251 252 253 254 255 256 258 259 260 261 262 263 264 264 265 266 267
236 237 238 238 238 236 236 236 236 236 236 237 238 239 239 240 241 242 243 244 244 244 244 245 247 248 249 250 251 251 251 253 254 254 254 255 257 257 258 259 260 261 261 262 263 264 265 266 267
237 238 239 238 237 236 236 235 235 236 236 236 237 238 238 240 241 241 242 243 244 244 245 246 247 249 250 251 252 253 254 254 255 256 256 256 257 258 258 258 258 260 261 262 263 264 266 267 267
238 238 238 238 237 236 237 236 236 235 236 236 237 238 239 240 241 242 243 243 244 245 246 248 249 250 250 251 252 253 254 255 255 256 256 257 257 258 258 259 259 260 261 262 263 264 266 267 268
238 239 238 237 237 237 237 237 236 236 236 237 238 239 240 241 242 242 243 243 244 245 246 248 249 249 250 251 252 253 254 255 256 257 257 258 258 259 259 259 260 260 261 262 263 264 266 266 267
239 238 238 238 237 237 237 237 236 236 237 237 239 239 240 241 241 242 243 244 245 245 246 247 248 249 250 251 253 254 254 255 255 257 258 258 259 259 259 260 260 261 262 262 263 264 266 265 266
239 239 238 237 238 238 238 239 238 238 238 238 239 239 240 241 241 242 244 244 245 246 247 248 249 251 251 252 254 255 255 255 255 256 257 258 259 259 260 261 262 263 263 263 264 264 265 266 267
240 240 238 238 238 239 239 239 239 239 239 239 240 240 241 241 242 243 243 245 246 247 249 250 251 252 253 254 256 255 255 256 257 257 257 258 259 261 262 262 263 264 264 265 265 264 265 267 268
240 240 239 239 239 239 239 240 240 240 240 240 241 242 243 243 243 244 245 246 247 248 249 251 253 254 255 256 258 257 257 258 259 260 260 260 260 262 263 263 264 265 265 266 266 266 265 266 267
240 240 240 240 241 241 241 240 241 241 241 241 241 242 243 243 244 245 247 248 249 250 251 252 254 256 258 258 259 259 259 260 260 261 262 262 262 263 264 264 264 265 265 266 266 267 266 267 268
241 241 241 241 242 242 242 241 241 240 242 242 242 242 243 244 246 247 248 249 250 251 251 253 255 257 259 260 261 260 259 260 261 262 263 264 265 264 264 264 264 265 266 266 266 267 267 268 268
242 242 241 242 243 243 243 242 241 240 242 243 243 243 245 246 248 248 249 250 251 252 253 254 256 258 260 261 261 260 260 260 262 264 265 266 266 265 264 264 265 265 266 266 267 267 268 268 268
243 243 242 242 243 244 244 243 242 242 242 243 244 245 247 248 249 250 250 251 252 253 254 256 258 260 261 262 261 261 261 261 263 264 266 267 267 267 265 265 265 265 266 267 267 268 268 268 269
244 244 243 243 243 244 245 244 243 243 243 244 245 247 248 249 250 251 251 252 253 254 256 257 259 261 263 263 263 262 262 262 263 265 266 267 267 268 267 266 266 266 267 267 268 269 269 269 269
245 245 244 244 244 245 245 244 244 243 243 244 246 247 248 250 251 252 253 253 254 255 256 258 260 262 264 264 264 264 264 263 264 265 266 267 268 268 268 267 266 266 267 268 268 269 269 269 269
246 245 245 245 245 245 245 245 244 245 245 245 246 247 249 251 252 253 254 254 255 256 257 259 261 263 265 266 266 265 265 265 265 265 266 267 268 269 269 268 267 267 267 268 269 269 270 270 270
245 246 246 246 246 247 246 245 245 245 246 246 247 248 250 251 253 254 255 255 255 257 258 260 262 264 265 266 267 266 266 266 266 266 267 268 269 269 270 268 267 268 268 269 270 271 271 271 270
245 245 246 247 247 248 248 246 245 246 246 247 248 249 251 252 253 254 255 255 256 257 259 261 262 264 265 267 267 267 268 268 268 268 269 269 270 270 269 268 269 269 270 271 272 273 273 272 272
245 245 245 246 246 246 247 248 245 246 246 247 249 250 251 252 253 255 256 256 257 257 259 261 262 264 265 267 268 269 270 270 269 269 269 270 271 270 269 270 270 270 272 273 273 273 274 274 274
245 245 245 245 246 246 246 249 245 246 248 249 250 251 251 252 253 254 256 257 257 257 259 261 262 264 265 266 268 270 271 271 271 271 270 271 271 271 271 272 272 272 273 274 274 274 275 275 276
244 245 245 245 247 247 246 249 248 247 249 250 251 251 251 252 254 255 257 258 258 258 260 261 262 264 265 267 269 270 272 272 272 272 271 271 271 272 273 273 273 274 274 275 275 276 276 277 277
242 244 245 245 247 249 249 249 250 249 249 250 251 252 252 253 255 256 258 259 258 259 260 261 263 264 266 268 269 271 271 272 273 273 272 271 272 273 274 275 275 275 275 275 276 277 278 279 279
242 243 244 247 250 250 250 250 251 251 251 251 252 252 253 254 255 257 258 258 258 260 261 262 264 265 267 268 269 270 271 272 273 274 272 272 272 274 275 276 277 277 276 277 277 279 280 279 280
242 243 244 247 250 252 252 251 252 253 253 253 253 253 253 254 256 257 258 259 260 261 261 263 264 265 267 268 269 270 271 272 273 273 273 273 274 275 276 276 277 278 277 278 280 281 281 281 281
241 241 241 244 248 251 252 252 253 253 254 254 253 253 253 255 257 258 259 260 261 262 263 264 264 266 267 268 269 271 272 273 273 274 274 274 275 276 276 277 278 279 279 280 281 282 282 281 281
240 241 241 243 246 249 252 253 253 254 255 254 254 254 255 256 257 258 260 261 262 263 264 264 265 266 267 268 270 271 272 273 274 274 274 275 276 277 277 279 280 281 281 281 281 282 282 283 282
239 240 242 243 245 247 250 253 253 256 256 256 255 255 256 257 258 259 260 261 262 262 263 264 265 265 267 268 270 271 272 274 275 275 275 275 276 277 278 280 281 282 282 282 282 282 282 282 282
Height
5825 5827 5829 5831 5833 5835 5837 5840 5841 5842 5843 5845 5846 5848 5850 5851 5853 5856 5856 5855 5856 5857 5858 5859 5860 5860 5861 5862 5863 5864 5864 5865 5865 5866 5866 5866 5867 5867 5867 5867 5867 5867 5867 5867 5866 5866 5866 5866 5866
5821 5822 5825 5826 5828 5831 5833 5835 5836 5837 5839 5841 5842 5844 5845 5846 5848 5850 5850 5851 5852 5853 5854 5855 5856 5857 5858 5859 5860 5861 5861 5862 5863 5863 5864 5864 5864 5864 5864 5864 5865 5865 5864 5864 5864 5864 5864 5864 5864
5816 5818 5820 5822 5824 5827 5829 5830 5832 5833 5835 5836 5838 5839 5841 5843 5844 5845 5846 5847 5849 5850 5851 5852 5853 5854 5855 5856 5857 5857 5858 5859 5860 5860 5861 5861 5861 5862 5862 5862 5862 5862 5862 5862 5862 5861 5861 5861 5861
5811 5813 5815 5818 5819 5822 5823 5825 5827 5828 5830 5832 5833 5835 5837 5839 5840 5841 5842 5843 5845 5846 5847 5848 5849 5850 5851 5852 5853 5854 5855 5855 5856 5857 5857 5858 5858 5858 5859 5859 5859 5859 5859 5859 5859 5858 5858 5858 5858
5806 5808 5810 5812 5814 5816 5818 5820 5822 5824 5825 5827 5829 5830 5832 5834 5835 5836 5838 5839 5840 5841 5843 5844 5845 5846 5847 5848 5849 5850 5851 5852 5852 5853 5853 5854 5854 5855 5855 5855 5855 5855 5856 5856 5855 5855 5855 5855 5855
5801 5803 5805 5807 5809 5811 5812 5814 5817 5818 5820 5822 5824 5826 5827 5829 5830 5832 5833 5834 5836 5837 5838 5840 5841 5842 5843 5844 5845 5846 5847 5847 5848 5848 5849 5849 5850 5850 5851 5851 5851 5852 5852 5852 5852 5852 5852 5851 5851
5796 5798 5799 5802 5804 5805 5807 5809 5811 5813 5815 5817 5819 5821 5823 5824 5825 5827 5828 5830 5831 5832 5834 5835 5836 5837 5838 5839 5840 5841 5842 5843 5843 5844 5845 5845 5846 5846 5846 5847 5847 5847 5848 5848 5848 5848 5848 5847 5847
5790 5792 5794 5796 5798 5800 5802 5803 5806 5808 5810 5812 5814 5816 5818 5819 5820 5822 5823 5825 5826 5828 5829 5830 5831 5832 5834 5835 5835 5836 5837 5838 5839 5839 5840 5840 5841 5841 5842 5842 5842 5843 5843 5843 5843 5843 5843 5843 5842
5783 5787 5789 5791 5793 5794 5796 5798 5800 5802 5804 5806 5808 5811 5813 5814 5815 5817 5818 5820 5821 5823 5824 5825 5826 5827 5828 5829 5830 5831 5832 5832 5833 5834 5835 5835 5836 5836 5836 5837 5837 5838 5838 5838 5838 5838 5838 5838 5838
5777 5781 5784 5786 5787 5788 5789 5792 5794 5796 5798 5801 5803 5805 5806 5808 5809 5811 5813 5815 5816 5817 5819 5820 5821 5822 5823 5824 5825 5825 5826 5827 5827 5828 5829 5829 5830 5831 5831 5831 5832 5832 5832 5833 5833 5833 5833 5832 5832
5772 5775 5778 5779 5780 5782 5783 5786 5788 5790 5793 5795 5796 5798 5800 5802 5804 5806 5807 5809 5810 5812 5813 5814 5815 5816 5817 5818 5819 5819 5820 5821 5821 5822 5822 5823 5824 5825 5825 5826 5826 5826 5826 5826 5827 5827 5826 5826 5826
5765 5768 5770 5772 5773 5775 5777 5779 5782 5784 5786 5788 5789 5791 5794 5796 5798 5799 5801 5803 5804 5806 5807 5808 5809 5810 5811 5812 5812 5813 5814 5815 5815 5816 5816 5817 5817 5818 5818 5819 5819 5819 5820 5820 5820 5820 5820 5820 5820
5757 5761 5763 5765 5766 5769 5771 5773 5775 5778 5779 5781 5783 5785 5787 5789 5791 5793 5795 5796 5798 5799 5800 5802 5803 5804 5804 5805 5806 5806 5807 5808 5808 5809 5809 5809 5810 5811 5811 5812 5812 5812 5812 5813 5813 5813 5813 5813 5813
5750 5753 5755 5757 5759 5761 5764 5766 5769 5772 5772 5774 5776 5779 5781 5783 5784 5786 5788 5789 5791 5792 5793 5794 5795 5796 5797 5798 5798 5799 5800 5800 5801 5801 5802 5802 5802 5803 5803 5804 5804 5804 5804 5805 5805 5805 5805 5805 5805
5742 5745 5747 5750 5752 5754 5756 5759 5763 5765 5765 5767 5769 5772 5774 5776 5777 5779 5781 5782 5784 5785 5786 5787 5788 5789 5789 5790 5790 5790 5791 5792 5793 5793 5793 5793 5794 5794 5794 5795 5795 5796 5796 5796 5796 5796 5796 5796 5796
5733 5736 5739 5743 5744 5746 5750 5753 5755 5756 5758 5760 5762 5764 5766 5768 5770 5772 5773 5775 5776 5777 5778 5779 5780 5780 5781 5781 5781 5781 5782 5783 5784 5784 5784 5784 5784 5784 5784 5785 5786 5786 5786 5786 5786 5786 5786 5786 5786
5724 5727 5731 5734 5736 5738 5740 5744 5747 5748 5750 5752 5754 5756 5758 5761 5762 5764 5765 5767 5768 5769 5770 5771 5771 5772 5772 5771 5772 5772 5772 5773 5774 5774 5774 5774 5774 5774 5774 5775 5775 5776 5775 5776 5776 5776 5776 5776 5776
5716 5719 5722 5725 5727 5729 5731 5735 5737 5739 5741 5744 5746 5748 5750 5752 5754 5755 5757 5758 5760 5761 5762 5762 5763 5763 5762 5762 5762 5762 5763 5763 5764 5764 5764 5764 5764 5764 5764 5764 5764 5765 5765 5765 5765 5765 5765 5765 5765
5706 5709 5712 5715 5717 5719 5722 5725 5728 5730 5733 5735 5738 5739 5741 5743 5745 5746 5748 5749 5751 5752 5753 5754 5754 5754 5753 5753 5752 5753 5753 5753 5753 5754 5754 5754 5754 5753 5753 5753 5753 5753 5754 5754 5754 5754 5754 5753 5753
5695 5698 5702 5705 5707 5709 5712 5715 5719 5721 5724 5726 5729 5731 5733 5734 5736 5737 5738 5740 5741 5743 5744 5744 5745 5745 5744 5744 5743 5743 5743 5743 5743 5743 5743 5743 5743 5742 5742 5741 5742 5742 5743 5743 5743 5742 5742 5741 5741
5685 5689 5692 5695 5697 5700 5702 5706 5710 5712 5714 5717 5719 5721 5723 5725 5726 5728 5729 5730 5732 5733 5734 5735 5735 5735 5735 5735 5734 5734 5733 5733 5733 5733 5733 5732 5731 5731 5730 5730 5731 5731 5731 5731 5731 5730 5730 5729 5729
5675 5679 5681 5684 5687 5690 5693 5695 5701 5703 5705 5707 5710 5712 5714 5716 5717 5718 5719 5721 5723 5724 5725 5726 5726 5726 5726 5725 5725 5724 5724 5724 5723 5723 5722 5722 5721 5720 5720 5719 5719 5720 5719 5719 5719 5718 5717 5717 5716
5664 5668 5670 5673 5675 5679 5682 5684 5691 5693 5695 5698 5700 5702 5704 5706 5707 5709 5710 5711 5713 5714 5715 5716 5716 5716 5716 5716 5715 5715 5714 5714 5713 5712 5712 5711 5710 5710 5709 5709 5708 5708 5708 5707 5706 5705 5704 5703 5702
5653 5657 5659 5661 5664 5667 5673 5674 5678 5683 5686 5689 5690 5692 5693 5695 5697 5699 5700 5701 5703 5704 5705 5706 5706 5707 5706 5706 5705 5705 5704 5703 5703 5702 5701 5700 5700 5699 5699 5698 5697 5696 5695 5694 5693 5692 5691 5689 5688
5642 5646 5649 5651 5653 5657 5662 5663 5668 5673 5676 5678 5680 5681 5683 5685 5687 5688 5690 5691 5693 5694 5695 5695 5696 5696 5696 5696 5695 5694 5693 5692 5692 5691 5690 5689 5689 5688 5687 5686 5685 5684 5682 5681 5680 5679 5677 5675 5674
5632 5636 5639 5642 5644 5647 5650 5652 5658 5662 5664 5667 5669 5671 5673 5675 5676 5678 5679 5681 5682 5683 5684 5685 5685 5685 5685 5685 5684 5683 5682 5681 5680 5679 5678 5678 5677 5677 5676 5674 5673 5671 5670 5668 5666 5665 5663 5661 5659
5621 5624 5628 5631 5633 5636 5638 5642 5647 5650 5653 5655 5658 5660 5662 5664 5666 5667 5669 5670 5671 5672 5673 5673 5674 5674 5674 5673 5672 5672 5670 5669 5668 5667 5666 5666 5665 5664 5663 5662 5660 5658 5656 5654 5652 5650 5648 5645 5643
5611 5614 5618 5620 5622 5625 5628 5632 5636 5639 5641 5644 5646 5648 5650 5652 5654 5656 5658 5659 5660 5661 5661 5662 5662 5662 5662 5661 5660 5659 5658 5657 5656 5655 5654 5653 5652 5651 5650 5649 5647 5645 5643 5640 5638 5635 5633 5630 5627
5601 5604 5607 5609 5612 5616 5618 5624 5625 5628 5630 5632 5634 5636 5639 5641 5643 5644 5646 5647 5648 5649 5650 5650 5650 5650 5649 5649 5648 5647 5646 5645 5644 5642 5642 5641 5640 5638 5637 5635 5633 5631 5629 5626 5623 5621 5618 5615 5612
5590 5594 5597 5600 5603 5605 5608 5614 5614 5617 5618 5620 5623 5625 5627 5629 5631 5633 5634 5635 5636 5637 5638 5638 5638 5638 5638 5637 5636 5635 5634 5633 5632 5630 5629 5628 5627 5626 5624 5622 5620 5618 5615 5612 5609 5606 5603 5600 5598